カタログに戻る

CZ-3 DEB

LostHEO
NORAD 29446·DEBRIS·🇨🇳 China

打ち上げ Apr 8, 1984 から Xichang Satellite Launch Center

Loading…

次のパス (今後24時間)

TLE

古いSource: Space-Track

元期: Jul 21, 2026, 11:24 UTC

1 29446U 84035E   26202.47559541  .00000136  00000-0  14689-3 0  9998
2 29446  30.3334 170.7533 6837881 244.6747  32.3099  2.76785884  6809

AllMySatでCZ-3 DEBをリアルタイム追跡

Download on the App Store